Weather History for Grand Marais Airport, MN

Change the Weather History Date:

Monday, October 15, 2012

  Actual Average Record
Temperature  
Mean Temperature 36 °F -  
Max Temperature 44 °F 46 °F 57 °F (2014)
Min Temperature 28 °F 32 °F 26 °F (2006)
Degree Days  
Heating Degree Days 29    
Moisture  
Dew Point 27 °F    
Average Humidity 78    
Maximum Humidity 93    
Minimum Humidity 53    
Precipitation  
Precipitation 0.00 in - - ()
Sea Level Pressure  
Sea Level Pressure 29.85 in    
Wind  
Wind Speed 6 mph (NW)    
Max Wind Speed 10 mph    
Max Gust Speed -    
Visibility 10 miles    
Events      
Averages and records for this station are not official NWS values.
T = Trace of Precipitation, MM = Missing Value Source: NWS Daily Summary

Daily Weather History Graph

Daily Weather History Graph

Search for Another Location

Airport:

Trip Planner

Search our weather history database for the weather conditions in past years. The results will help you decide how hot, cold, wet, or windy it might be!

Date:

Astronomy

Oct. 15, 2012 Rise Set
Actual Time 7:21 AM CDT 6:12 PM CDT
Civil Twilight 6:50 AM CDT 6:43 PM CDT
Nautical Twilight 6:14 AM CDT 7:19 PM CDT
Astronomical Twilight 5:38 AM CDT 7:54 PM CDT
Moon 7:36 AM CDT (10/15) 6:05 PM CDT (10/15)
Length of Visible Light 11h 53m
Length of Day
10h 50m
New Moon, 0% of the Moon is Illuminated
Oct 15
New Moon
Oct 21
First Quarter
Oct 29
Full
Nov 6
Last Quarter
Nov 13
New

Hourly Weather History & Observations

Time (CDT) Temp. Windchill Dew Point Humidity Pressure Visibility Wind Dir Wind Speed Gust Speed Precip Events Conditions
12:14 AM 30.2 °F 25.4 °F 26.6 °F 86% 29.81 in 10.0 mi NNW 4.6 mph - N/A   Scattered Clouds
12:33 AM 30.2 °F 24.3 °F 26.6 °F 86% 29.82 in 10.0 mi NNW 5.8 mph - N/A   Mostly Cloudy
12:54 AM 30.2 °F 25.4 °F 26.6 °F 86% 29.82 in 10.0 mi NW 4.6 mph - N/A   Mostly Cloudy
1:13 AM 30.2 °F 23.4 °F 26.6 °F 86% 29.82 in 10.0 mi NNW 6.9 mph - N/A   Overcast
1:34 AM 30.2 °F 24.3 °F 26.6 °F 86% 29.82 in 10.0 mi NNW 5.8 mph - N/A   Mostly Cloudy
1:54 AM 30.2 °F 22.6 °F 26.6 °F 86% 29.82 in 10.0 mi NW 8.1 mph - N/A   Clear
2:13 AM 28.4 °F 21.2 °F 24.8 °F 86% 29.82 in 10.0 mi NNW 6.9 mph - N/A   Clear
2:34 AM 28.4 °F 21.2 °F 24.8 °F 86% 29.83 in 10.0 mi NNW 6.9 mph - N/A   Clear
2:54 AM 28.4 °F 20.4 °F 24.8 °F 86% 29.82 in 10.0 mi NNW 8.1 mph - N/A   Clear
3:13 AM 28.4 °F 19.7 °F 24.8 °F 86% 29.82 in 10.0 mi NNW 9.2 mph - N/A   Clear
3:34 AM 28.4 °F 20.4 °F 24.8 °F 86% 29.82 in 10.0 mi NNW 8.1 mph - N/A   Clear
3:54 AM 28.4 °F 19.1 °F 24.8 °F 86% 29.82 in 10.0 mi NNW 10.4 mph - N/A   Clear
4:14 AM 28.4 °F 20.4 °F 24.8 °F 86% 29.82 in 10.0 mi NNW 8.1 mph - N/A   Clear
4:54 AM 28.4 °F 19.1 °F 24.8 °F 86% 29.83 in 10.0 mi NNW 10.4 mph - N/A   Clear
5:13 AM 28.4 °F 22.2 °F 24.8 °F 86% 29.83 in 10.0 mi NNW 5.8 mph - N/A   Clear
5:34 AM 28.4 °F 22.2 °F 24.8 °F 86% 29.84 in 10.0 mi NNW 5.8 mph - N/A   Mostly Cloudy
5:54 AM 28.4 °F 20.4 °F 24.8 °F 86% 29.84 in 10.0 mi North 8.1 mph - N/A   Overcast
6:14 AM 28.4 °F 19.1 °F 24.8 °F 86% 29.84 in 10.0 mi North 10.4 mph - N/A   Overcast
6:33 AM 28.4 °F 21.2 °F 24.8 °F 86% 29.85 in 10.0 mi NNW 6.9 mph - N/A   Overcast
6:53 AM 28.4 °F 19.1 °F 24.8 °F 86% 29.85 in 10.0 mi NNW 10.4 mph - N/A   Mostly Cloudy
7:14 AM 28.4 °F 21.2 °F 24.8 °F 86% 29.85 in 10.0 mi NNW 6.9 mph - N/A   Mostly Cloudy
7:34 AM 28.4 °F 22.2 °F 24.8 °F 86% 29.85 in 10.0 mi North 5.8 mph - N/A   Overcast
7:53 AM 28.4 °F 22.2 °F 24.8 °F 86% 29.86 in 10.0 mi NNW 5.8 mph - N/A   Mostly Cloudy
8:14 AM 28.4 °F 24.6 °F 24.8 °F 86% 29.88 in 10.0 mi NNW 3.5 mph - N/A   Overcast
8:34 AM 28.4 °F 24.6 °F 26.6 °F 93% 29.89 in 10.0 mi NNW 3.5 mph - N/A   Overcast
8:53 AM 30.2 °F 26.7 °F 26.6 °F 86% 29.89 in 10.0 mi NNW 3.5 mph - N/A   Overcast
9:14 AM 32.0 °F 24.8 °F 26.6 °F 80% 29.89 in 10.0 mi NNW 8.1 mph - N/A   Scattered Clouds
9:34 AM 33.8 °F 27.0 °F 26.6 °F 75% 29.88 in 10.0 mi NNW 8.1 mph - N/A   Clear
9:53 AM 33.8 °F 28.6 °F 26.6 °F 75% 29.88 in 10.0 mi North 5.8 mph - N/A   Clear
10:33 AM 39.2 °F 37.0 °F 26.6 °F 61% 29.89 in 10.0 mi WNW 3.5 mph - N/A   Clear
10:54 AM 39.2 °F 37.0 °F 26.6 °F 61% 29.89 in 10.0 mi North 3.5 mph - N/A   Clear
11:14 AM 41.0 °F - 26.6 °F 57% 29.88 in 10.0 mi Calm Calm - N/A   Clear
11:33 AM 42.8 °F 41.1 °F 26.6 °F 53% 29.89 in 10.0 mi South 3.5 mph - N/A   Clear
11:54 AM 44.6 °F 40.7 °F 28.4 °F 53% 29.89 in 10.0 mi South 6.9 mph - N/A   Clear
12:14 PM 42.8 °F 38.0 °F 28.4 °F 57% 29.90 in 10.0 mi SSE 8.1 mph - N/A   Clear
12:33 PM 42.8 °F 38.6 °F 28.4 °F 57% 29.90 in 10.0 mi SE 6.9 mph - N/A   Clear
12:53 PM 42.8 °F 39.3 °F 28.4 °F 57% 29.90 in 10.0 mi SSE 5.8 mph - N/A   Clear
1:14 PM 42.8 °F 38.6 °F 28.4 °F 57% 29.89 in 10.0 mi SSE 6.9 mph - N/A   Clear
1:34 PM 42.8 °F 38.0 °F 28.4 °F 57% 29.89 in 10.0 mi SSE 8.1 mph - N/A   Clear
1:54 PM 42.8 °F 38.6 °F 28.4 °F 57% 29.89 in 10.0 mi SSE 6.9 mph - N/A   Clear
2:13 PM 42.8 °F 38.6 °F 28.4 °F 57% 29.88 in 10.0 mi SE 6.9 mph - N/A   Clear
2:34 PM 42.8 °F 38.6 °F 30.2 °F 61% 29.88 in 10.0 mi SSE 6.9 mph - N/A   Clear
2:53 PM 41.0 °F 35.2 °F 30.2 °F 65% 29.88 in 10.0 mi SSE 9.2 mph - N/A   Clear
3:14 PM 41.0 °F 37.1 °F 30.2 °F 65% 29.88 in 10.0 mi SSE 5.8 mph - N/A   Clear
3:33 PM 41.0 °F 37.1 °F 30.2 °F 65% 29.87 in 10.0 mi South 5.8 mph - N/A   Clear
3:54 PM 39.2 °F 33.6 °F 30.2 °F 70% 29.88 in 10.0 mi SSE 8.1 mph - N/A   Clear
4:14 PM 37.4 °F 32.8 °F 30.2 °F 75% 29.87 in 10.0 mi South 5.8 mph - N/A   Clear
4:33 PM 37.4 °F 34.9 °F 28.4 °F 70% 29.87 in 10.0 mi South 3.5 mph - N/A   Clear
4:54 PM 35.6 °F 32.8 °F 30.2 °F 81% 29.86 in 10.0 mi South 3.5 mph - N/A   Clear
5:14 PM 35.6 °F 30.7 °F 28.4 °F 75% 29.87 in 10.0 mi South 5.8 mph - N/A   Clear
5:33 PM 35.6 °F - 30.2 °F 81% 29.86 in 10.0 mi Calm Calm - N/A   Clear
5:54 PM 35.6 °F 32.8 °F 28.4 °F 75% 29.86 in 10.0 mi South 3.5 mph - N/A   Clear
6:14 PM 33.8 °F 30.8 °F 28.4 °F 81% 29.86 in 10.0 mi South 3.5 mph - N/A   Clear
6:33 PM 33.8 °F 30.8 °F 28.4 °F 81% 29.86 in 10.0 mi South 3.5 mph - N/A   Clear
6:54 PM 33.8 °F - 28.4 °F 81% 29.85 in 10.0 mi Calm Calm - N/A   Scattered Clouds
7:13 PM 33.8 °F - 28.4 °F 81% 29.85 in 10.0 mi Calm Calm - N/A   Clear
7:34 PM 33.8 °F - 28.4 °F 81% 29.85 in 10.0 mi Calm Calm - N/A   Clear
7:54 PM 33.8 °F - 28.4 °F 81% 29.84 in 10.0 mi Calm Calm - N/A   Clear
8:13 PM 33.8 °F - 28.4 °F 81% 29.84 in 10.0 mi Calm Calm - N/A   Scattered Clouds
8:34 PM 33.8 °F - 28.4 °F 81% 29.82 in 10.0 mi Calm Calm - N/A   Mostly Cloudy
8:53 PM 33.8 °F - 28.4 °F 81% 29.82 in 10.0 mi Calm Calm - N/A   Mostly Cloudy
9:14 PM 33.8 °F - 28.4 °F 81% 29.83 in 10.0 mi Calm Calm - N/A   Overcast
9:34 PM 33.8 °F 29.6 °F 30.2 °F 87% 29.83 in 10.0 mi South 4.6 mph - N/A   Scattered Clouds
9:53 PM 33.8 °F 30.8 °F 30.2 °F 87% 29.83 in 10.0 mi South 3.5 mph - N/A   Scattered Clouds
10:14 PM 33.8 °F - 30.2 °F 87% 29.82 in 10.0 mi Calm Calm - N/A   Scattered Clouds
10:34 PM 33.8 °F - 30.2 °F 87% 29.82 in 10.0 mi Calm Calm - N/A   Scattered Clouds
10:54 PM 33.8 °F - 30.2 °F 87% 29.82 in 10.0 mi Calm Calm - N/A   Scattered Clouds
11:13 PM 33.8 °F 29.6 °F 30.2 °F 87% 29.81 in 10.0 mi SSE 4.6 mph - N/A   Mostly Cloudy
11:34 PM 33.8 °F - 30.2 °F 87% 29.80 in 10.0 mi Calm Calm - N/A   Mostly Cloudy
11:54 PM 33.8 °F - 30.2 °F 87% 29.79 in 10.0 mi Calm Calm - N/A   Overcast